DW6561 Weather Reports


time (UTC)temp
C
wind
direction
speed
KPH
gust
KPH
rain 1hr
cm
rain 24hr
cm
rain mn
cm
humidity
%
barometer
mb
20260905170017 16 324 0.0 0.0 0.00 0.00 0.00 64 1018.5
20260905164504 16 314 0.0 0.0 0.00 0.00 0.00 65 1018.4
20260905163003 16 314 0.0 0.0 0.00 0.00 0.00 65 1018.3
20260905161508 15 314 0.0 1.6 0.00 0.00 0.00 66 1018.1
20260905160026 15 296 0.0 1.6 0.00 0.00 0.00 67 1017.8
20260905154532 15 295 0.0 3.2 0.00 0.00 0.00 68 1017.8
20260905153012 14 161 0.0 0.0 0.00 0.00 0.00 69 1017.8
20260905151506 13 161 0.0 0.0 0.00 0.00 0.00 71 1018.1
20260905150005 13 161 0.0 0.0 0.00 0.00 0.00 73 1018.1
20260905144523 13 161 0.0 0.0 0.00 0.00 0.00 76 1018.0
20260905143024 12 161 0.0 0.0 0.00 0.00 0.00 75 1017.9
20260905141522 12 161 0.0 0.0 0.00 0.00 0.00 73 1017.9
20260905140008 12 161 0.0 0.0 0.00 0.00 0.00 71 1017.8
20260905134512 12 161 0.0 0.0 0.00 0.00 0.00 71 1017.8
20260905133022 12 161 0.0 0.0 0.00 0.00 0.00 69 1017.4
20260905131531 12 161 0.0 0.0 0.00 0.00 0.00 69 1017.4
20260905130027 12 161 0.0 0.0 0.00 0.00 0.00 70 1017.3
20260905124519 12 161 0.0 0.0 0.00 0.00 0.00 70 1017.2
20260905123018 12 161 0.0 0.0 0.00 0.00 0.00 71 1017.3
20260905121518 13 161 0.0 0.0 0.00 0.00 0.00 73 1017.0
20260905120032 13 161 0.0 0.0 0.00 0.00 0.00 73 1017.0
20260905114531 13 161 0.0 0.0 0.00 0.00 0.00 69 1016.7
20260905113019 13 161 0.0 0.0 0.00 0.00 0.00 69 1016.5
20260905111523 13 161 0.0 0.0 0.00 0.00 0.00 69 1016.5
20260905110028 13 161 0.0 0.0 0.00 0.00 0.00 68 1016.4
20260905104525 13 161 0.0 0.0 0.00 0.00 0.00 67 1016.4
20260905103036 13 161 0.0 0.0 0.00 0.00 0.00 66 1016.5
20260905101502 13 161 0.0 0.0 0.00 0.00 0.00 65 1016.4
20260905100003 14 161 0.0 0.0 0.00 0.00 0.00 64 1016.5
20260905094506 14 161 0.0 0.0 0.00 0.00 0.00 62 1016.5
20260905093003 14 161 0.0 0.0 0.00 0.00 0.00 62 1016.5
20260905091504 14 173 0.0 0.0 0.00 0.00 0.00 63 1016.5
20260905090004 14 329 0.0 0.0 0.00 0.00 0.00 63 1016.3
20260905084506 14 329 0.0 0.0 0.00 0.00 0.00 63 1016.1
20260905083012 15 329 0.0 0.0 0.00 0.00 0.00 62 1016.1
20260905081509 15 329 0.0 0.0 0.00 0.00 0.00 61 1016.0
20260905080003 15 329 0.0 0.0 0.00 0.00 0.00 61 1015.8
20260905074504 15 329 0.0 0.0 0.00 0.00 0.00 61 1015.7
20260905073010 15 329 0.0 1.6 0.00 0.00 0.00 61 1015.6
20260905071515 15 344 0.0 1.6 0.00 0.00 0.00 61 1015.6
20260905070015 15 291 0.0 0.0 0.00 0.00 0.00 62 1015.5
20260905064504 14 239 0.0 0.0 0.00 0.00 0.00 63 1015.4
20260905063004 14 239 0.0 0.0 0.00 0.00 0.00 63 1015.3
20260905061507 15 229 0.0 1.6 0.00 0.00 0.00 63 1015.2
20260905060004 15 49 0.0 0.0 0.00 0.00 0.00 62 1015.1
20260905054524 15 49 0.0 0.0 0.00 0.00 0.00 61 1015.1
20260905053004 15 49 0.0 1.6 0.00 0.00 0.00 59 1015.0
20260905051508 15 17 0.0 0.0 0.00 0.00 0.00 58 1014.8
20260905050013 16 17 0.0 0.0 0.00 0.00 0.00 55 1015.0
20260905044515 16 17 0.0 0.0 0.00 0.00 0.00 49 1014.9
20260905043006 16 17 0.0 0.0 0.00 0.00 0.00 43 1014.7
20260905041528 17 17 0.0 0.0 0.00 0.00 0.00 44 1014.9
20260905040017 17 17 0.0 0.0 0.00 0.00 0.00 43 1014.9
20260905034526 17 17 0.0 0.0 0.00 0.00 0.00 42 1014.9
20260905033019 17 17 0.0 0.0 0.00 0.00 0.00 43 1014.7
20260905031515 18 17 0.0 0.0 0.00 0.00 0.00 43 1014.6
20260905030010 18 17 0.0 0.0 0.00 0.00 0.00 43 1014.4
20260905024517 18 17 0.0 0.0 0.00 0.00 0.00 41 1014.4
20260905023020 19 17 0.0 0.0 0.00 0.00 0.00 41 1014.4
20260905021533 20 17 0.0 0.0 0.00 0.00 0.00 38 1014.4
20260905020026 20 17 0.0 0.0 0.00 0.00 0.00 37 1014.3
20260905014521 20 17 0.0 0.0 0.00 0.00 0.00 38 1014.3
20260905013015 21 17 0.0 0.0 0.00 0.00 0.00 36 1014.2
20260905011501 21 19 0.0 3.2 0.00 0.00 0.00 36 1014.1
20260905010006 21 142 0.0 0.0 0.00 0.00 0.00 36 1014.0
20260905004509 21 333 0.0 0.0 0.00 0.00 0.00 35 1014.0
20260905003004 22 333 0.0 0.0 0.00 0.00 0.00 34 1013.9
20260905001503 22 117 0.0 0.0 0.00 0.00 0.00 33 1013.8
20260905000011 22 117 0.0 4.8 0.00 0.00 0.00 34 1013.9
20260904234502 22 129 0.0 0.0 0.00 0.00 0.00 36 1014.0
20260904233016 22 111 0.0 3.2 0.00 0.00 0.00 39 1013.9
20260904231503 22 117 0.0 3.2 0.00 0.00 0.00 37 1013.9
20260904230004 22 103 0.0 0.0 0.00 0.00 0.00 37 1013.9
20260904224505 23 98 1.6 4.8 0.00 0.00 0.00 38 1013.9
20260904223011 23 327 0.0 6.4 0.00 0.00 0.00 39 1014.0
20260904221506 23 109 0.0 1.6 0.00 0.00 0.00 41 1014.1
20260904220008 22 74 0.0 4.8 0.00 0.00 0.00 41 1014.2
20260904214512 22 103 0.0 0.0 0.00 0.00 0.00 45 1014.2
20260904213011 22 131 0.0 0.0 0.00 0.00 0.00 43 1014.1
20260904211510 22 86 0.0 3.2 0.00 0.00 0.00 43 1014.1
20260904210004 22 125 0.0 4.8 0.00 0.00 0.00 42 1014.1
20260904204505 22 123 0.0 3.2 0.00 0.00 0.00 43 1014.0
20260904203009 21 92 0.0 4.8 0.00 0.00 0.00 44 1014.1
20260904201511 21 288 0.0 1.6 0.00 0.00 0.00 45 1014.1
20260904200014 21 296 0.0 3.2 0.00 0.00 0.00 45 1014.1
20260904194512 21 196 0.0 3.2 0.00 0.00 0.00 47 1014.2
20260904193003 21 344 0.0 1.6 0.00 0.00 0.00 45 1014.3
20260904191504 21 300 0.0 1.6 0.00 0.00 0.00 44 1014.5
20260904190019 21 89 0.0 3.2 0.00 0.00 0.00 46 1014.6
20260904184529 21 103 0.0 0.0 0.00 0.00 0.00 48 1014.7
20260904183018 20 183 0.0 0.0 0.00 0.00 0.00 47 1014.8
20260904181509 20 145 0.0 0.0 0.00 0.00 0.00 47 1014.7
20260904180011 20 258 0.0 0.0 0.00 0.00 0.00 49 1014.5
20260904174511 19 316 0.0 0.0 0.00 0.00 0.00 51 1014.4
20260904173037 18 308 0.0 0.0 0.00 0.00 0.00 51 1014.3